Tracking 19794 objects as of 22-Jul-2019
HD Live streaming from Space Station
objects crossing your sky now

COSMOS 1859

Track COSMOS 1859 now!
10-day predictions
COSMOS 1859 is classified as:


NORAD ID: 18120
Int'l Code: 1987-051H
Perigee: 1,393.6 km
Apogee: 1,483.8 km
Inclination: 74.0 °
Period: 114.5 minutes
Semi major axis: 7809 km
RCS: 0.6713 m2 (medium)
Launch date: June 16, 1987
Source: Commonwealth of Independent States (former USSR) (CIS)
Launch site: PLESETSK MISSILE AND SPACE COMPLEX (PKMTR)
aabbcc
Your satellite tracking list
Your tracking list is empty




NASA's NSSDC Master Catalog

Two Line Element Set (TLE):
1 18120U 87051H   19203.08888373 -.00000022  00000-0 -32303-4 0  9994
2 18120  74.0012 187.2357 0057740 250.7459 173.4794 12.57908052474094
Source of the keplerian elements: AFSPC